Regional Weather Roundup
Issued by NWS

Home | Current Version | Previous Version | Text Only | Print | Product List | Glossary On
Versions: 1 2 3 4 5 6 7 8 9 10 11 12 13 14 15 16 17 18 19 20 21 22 23 24 25 26 27 28 29 30 31 32 33 34 35 36 37 38 39 40 41 42 43 44 45 46 47 48 49 50
000
ASUS45 KPSR 251500
RWRAZ

PRELIMINARY ARIZONA REGIONAL HOURLY WEATHER ROUNDUP
NATIONAL WEATHER SERVICE PHOENIX AZ
800 AM MST THU DEC 25 2014

NOTE: FAIR INDICATES FEW OR NO CLOUDS BELOW 12,000 FEET WITH NO
SIGNIFICANT WEATHER AND/OR OBSTRUCTIONS TO VISIBILITY.

AZZ001>003-036-251600-
NORTHWEST ARIZONA

CITY           SKY/WX    TMP DP  RH WIND       PRES   REMARKS
KINGMAN        CLOUDY    43  21  41 SW15      29.71R
$$

AZZ004>008-015-016-018-251600-
NORTH CENTRAL ARIZONA

CITY           SKY/WX    TMP DP  RH WIND       PRES   REMARKS
GRAND CANYON   CLOUDY    28  23  81 W6        29.65S WCI  22
PRESCOTT       MOSUNNY   38  16  40 S9        29.71S WCI  31
FLAGSTAFF      NOT AVBL
PAYSON         CLOUDY    36  18  48 CALM      29.76S
PAGE           CLOUDY    42  22  44 SW10      29.57S
$$

AZZ009>014-017-251600-
NORTHEAST ARIZONA

CITY           SKY/WX    TMP DP  RH WIND       PRES   REMARKS
WINSLOW        NOT AVBL
SAINT JOHNS    SUNNY     41  14  33 W13       29.69R
WINDOW ROCK    CLOUDY    35  10  35 SW17G25   29.66R WCI  25
SHOW LOW       MOSUNNY   32   7  34 S32G40    29.68R WCI  17
$$

AZZ023-251600-
GREATER PHOENIX AREA

CITY           SKY/WX    TMP DP  RH WIND       PRES   REMARKS
PHOENIX        PTSUNNY   46  31  55 W3        29.73R
GLENDALE       MOSUNNY   41  34  75 CALM      29.75S
LUKE AFB       MOSUNNY   41  32  69 NW2       29.72F
DEER VALLEY    PTSUNNY   43  27  53 E5        29.72F
SCOTTSDALE     CLOUDY    47  28  47 CALM      29.74S
MESA-GATEWAY   PTSUNNY   43  28  56 SE7       29.74S
CHANDLER       MOSUNNY   41  32  70 E6        29.73S
$$

AZZ027-028-251600-
SOUTHWEST MARICOPA COUNTY AND PINAL COUNTY

CITY           SKY/WX    TMP DP  RH WIND       PRES   REMARKS
CASA GRANDE    CLOUDY    43  28  56 CALM      29.73R
$$

AZZ503-504-507>509-251600-
SOUTHEAST ARIZONA

CITY           SKY/WX    TMP DP  RH WIND       PRES   REMARKS
TUCSON         MOSUNNY   58  11  15 S7G18     29.77R
DAVIS-MONTHAN  MOSUNNY   48  24  38 E7        29.75S
NOGALES        PTSUNNY   53  10  18 S12       29.84S
SIERRA VISTA   PTSUNNY   53   3  13 SW24G33   29.80F
SAFFORD        SUNNY     34  22  61 NW5       29.76F WCI  30
$$

AZZ020-021-025-026-031-251600-
SOUTHWEST ARIZONA

CITY           SKY/WX    TMP DP  RH WIND       PRES   REMARKS
YUMA           MOSUNNY  N/A N/A N/A N3        29.74R
$$

CAZ031-033-041-043-047-048-061-251600-
SOUTHERN CALIFORNIA

CITY           SKY/WX    TMP DP  RH WIND       PRES   REMARKS
DOWNTOWN L.A.  SUNNY     54  28  36 N7        29.81S
L.A. AIRPORT   MOSUNNY   54  29  38 NW15G21   29.83R
SAN DIEGO      PTSUNNY   60  49  66 SW5       29.83S
BURBANK        SUNNY     52  27  38 NW7       29.82S
ONTARIO        MOSUNNY   49  42  77 W12       29.80R
RIVERSIDE      MOSUNNY   54  28  36 E9G18     29.80S
PALM SPRINGS   SUNNY     52  35  52 E6        29.75R
EL CENTRO NAS  MOSUNNY   58  39  49 CALM      29.73R
IMPERIAL       CLOUDY    59  41  51 SW9       29.73R
BLYTHE         MOSUNNY   46  23  40 N3        29.76R
$$

NVZ020-UTZ003-251600-
SOUTHERN NEVADA-UTAH

CITY           SKY/WX    TMP DP  RH WIND       PRES   REMARKS
LAS VEGAS      NOT AVBL
SALT LAKE CITY CLOUDY    32  21  64 W15       29.60R WCI  22
$$

NMZ009-TXZ055-251600-
NEW MEXICO-WEST TEXAS

CITY           SKY/WX    TMP DP  RH WIND       PRES   REMARKS
ALBUQUERQUE    MOSUNNY   34  11  38 S9        29.72S WCI  27
EL PASO        CLOUDY    39  12  33 S6        29.84R WCI  35
$$


........................KEY........................
SKY/WX - SKY CONDITION/WEATHER
TMP    - TEMPERATURE IN FAHRENHEIT
DP     - DEW POINT IN FAHRENHEIT
RH     - RELATIVE HUMIDITY IN PERCENT
WIND   - DIRECTION AND SPEED IN MILES PER HOUR (MPH)
VRB    - VARIABLE WIND DIRECTION
PRES   - MEAN SEA LEVEL PRESSURE IN INCHES OF MERCURY
         F - FALLING PRESSURE   R - RISING PRESSURE
         S - STEADY PRESSURE
VSB    - VISIBILITY IN MILES
HX     - HEAT INDEX IN FAHRENHEIT
WCI    - WIND CHILL INDEX IN FAHRENHEIT
TC     - TEMPERATURE IN CELSIUS WHICH IS ALSO KNOWN AS
         TEMPERATURE IN CENTIGRADE
AFB    - AIR FORCE BASE
         LUKE AFB IS LUKE AIR FORCE BASE
         DAVIS-MONTHAN IS DAVIS-MONTHAN AIR FORCE BASE
NAS    - NAVAL AIR STATION
         EL CENTRO NAS IS EL CENTRO NAVAL AIR STATION
N/A    - NOT AVAILABLE


USA.gov is the U.S. government's official web portal to all federal, state and local government web resources and services.